Date,TemperatureHighF,TemperatureAvgF,TemperatureLowF,DewpointHighF,DewpointAvgF,DewpointLowF,HumidityHigh,HumidityAvg,HumidityLow,PressureMaxIn,PressureMinIn,WindSpeedMaxMPH,WindSpeedAvgMPH,GustSpeedMaxMPH,PrecipitationSumIn
2012-12-2,65.1,56.2,54.5,53.9,46.7,-99.9,97,78,60,29.86,29.81,5,-31,0,0.00
2012-12-3,71.8,60.1,52.5,57.2,54.3,51.7,99,83,56,29.90,29.81,5,1,0,0.00
2012-12-4,69.3,57.1,44.1,57.4,52.3,43.8,99,85,65,29.94,29.81,6,1,0,0.00
2012-12-5,66.4,57.2,42.4,58.4,54.1,42.1,99,90,72,29.87,29.76,7,2,0,0.00
2012-12-6,52.0,44.8,37.8,44.5,35.4,32.1,99,71,49,30.00,29.87,6,2,0,0.00
2012-12-7,56.8,49.6,45.3,50.4,44.3,35.4,99,83,67,29.90,29.69,4,2,0,0.07
2012-12-8,63.9,54.1,49.8,56.2,52.1,49.5,99,94,74,29.77,29.66,5,1,0,0.01
2012-12-9,72.3,62.0,52.9,62.8,58.5,52.6,99,89,70,29.86,29.71,7,2,0,0.00
2012-12-10,70.2,65.4,62.8,65.1,61.4,58.6,99,88,70,29.71,29.44,9,4,0,0.00
2012-12-11,63.5,57.2,50.4,59.8,46.1,37.0,99,68,47,29.94,29.50,7,3,0,0.00
2012-12-12,49.6,44.5,38.3,39.1,35.8,31.4,99,73,56,30.13,29.94,7,3,0,0.26
2012-12-13,49.3,40.5,31.3,37.8,35.5,30.1,99,83,63,30.19,30.08,12,3,0,0.12
2012-12-14,53.4,36.4,24.3,35.5,29.8,24.1,99,81,41,30.15,30.00,4,0,0,0.00
2012-12-15,55.6,44.4,28.8,38.4,33.9,28.6,99,71,36,30.03,29.85,5,1,0,0.03
2012-12-16,59.0,53.5,48.2,55.8,51.2,38.0,99,92,58,29.84,29.67,5,2,0,0.14
2012-12-17,62.2,57.5,54.7,58.5,56.1,54.4,99,95,84,29.66,29.41,10,3,0,0.22
2012-12-18,62.4,53.2,35.2,57.1,45.3,33.0,99,77,43,29.72,29.43,12,3,0,0.00
2012-12-19,64.2,45.3,30.7,38.8,34.9,30.3,99,72,35,29.95,29.71,6,1,0,0.00
2012-12-20,61.9,50.8,37.0,61.6,46.0,36.7,99,84,65,30.00,29.28,13,5,0,0.52
2012-12-21,56.8,42.8,37.2,52.0,28.8,21.5,84,58,44,29.67,29.31,20,6,0,0.01
2012-12-22,47.7,38.9,29.7,23.8,21.7,18.7,72,51,34,29.97,29.66,13,4,0,0.00
2012-12-23,55.6,39.2,22.3,31.2,23.9,18.5,99,59,30,30.01,29.88,7,1,0,0.00
2012-12-24,52.9,48.6,44.1,48.7,38.6,29.9,96,69,52,29.90,29.76,8,2,0,0.00
2012-12-25,62.6,52.2,42.3,48.7,44.4,39.3,99,77,47,29.98,29.79,11,2,0,0.03
2012-12-26,49.8,43.7,37.6,49.5,43.0,37.3,99,97,83,29.93,29.30,13,4,0,1.83
2012-12-27,47.5,40.4,33.6,37.8,31.6,26.2,99,72,52,29.96,29.51,7,3,0,0.01
2012-12-28,46.0,37.5,24.4,33.5,28.7,23.6,99,72,51,30.09,29.89,6,1,0,0.00
2012-12-29,51.1,43.1,37.8,44.5,36.4,28.7,99,79,55,29.88,29.53,9,3,0,0.41
2012-12-30,44.2,36.8,26.8,27.6,22.2,19.6,78,56,37,30.29,29.85,11,3,0,0.00
2012-12-31,53.4,38.9,21.4,28.8,25.3,20.7,99,63,32,30.27,29.98,8,2,0,0.00
2013-1-1,49.8,46.8,43.3,49.5,40.9,28.4,99,82,50,29.97,29.81,7,2,0,0.23